| time (UTC) | temp C | wind direction | speed KPH | gust KPH | rain 1hr cm | rain 24hr cm | rain mn cm | humidity % | barometer mb |
| 20260509103016 | 10 | 338 | 16.1 | 22.5 | 0.00 | 0.00 | 0.00 | 60 | 1004.3 |
| 20260509100016 | 10 | 315 | 12.9 | 24.1 | 0.00 | 0.00 | 0.00 | 57 | 1004.2 |
| 20260509093036 | 10 | 315 | 17.7 | 45.1 | 0.00 | 0.00 | 0.00 | 56 | 1003.4 |
| 20260509090017 | 7 | 225 | 8.0 | 12.9 | 0.00 | 0.00 | 0.00 | 63 | 1002.0 |
| 20260509083017 | 7 | 225 | 4.8 | 9.7 | 0.00 | 0.00 | 0.00 | 61 | 1001.8 |
| 20260509080016 | 8 | 225 | 6.4 | 11.3 | 0.00 | 0.00 | 0.00 | 59 | 1001.8 |
| 20260509073016 | 8 | 225 | 4.8 | 11.3 | 0.00 | 0.00 | 0.00 | 57 | 1001.9 |
| 20260509070037 | 8 | 248 | 4.8 | 8.0 | 0.00 | 0.00 | 0.00 | 56 | 1002.4 |
| 20260509063016 | 8 | 248 | 6.4 | 12.9 | 0.00 | 0.00 | 0.00 | 54 | 1002.9 |
| 20260509060016 | 11 | 315 | 3.2 | 6.4 | 0.00 | 0.00 | 0.00 | 47 | 1003.3 |
| 20260509053016 | 12 | 315 | 1.6 | 4.8 | 0.00 | 0.00 | 0.00 | 44 | 1003.6 |
| 20260509050027 | 12 | 315 | 1.6 | 6.4 | 0.00 | 0.00 | 0.00 | 43 | 1004.0 |
| 20260509043017 | 13 | 315 | 4.8 | 9.7 | 0.00 | 0.00 | 0.00 | 41 | 1004.2 |
| 20260509040017 | 13 | 338 | 12.9 | 17.7 | 0.00 | 0.00 | 0.00 | 40 | 1004.4 |
| 20260509033016 | 15 | 338 | 16.1 | 25.7 | 0.00 | 0.00 | 0.00 | 37 | 1004.4 |
| 20260509030017 | 16 | 338 | 22.5 | 29.0 | 0.00 | 0.00 | 0.00 | 34 | 1004.3 |
| 20260509023017 | 16 | 315 | 20.9 | 29.0 | 0.00 | 0.00 | 0.00 | 33 | 1004.0 |
| 20260509020017 | 17 | 315 | 22.5 | 32.2 | 0.00 | 0.00 | 0.00 | 30 | 1003.7 |
| 20260509013017 | 18 | 315 | 27.4 | 40.2 | 0.00 | 0.00 | 0.00 | 27 | 1003.4 |
| 20260509010017 | 20 | 338 | 32.2 | 49.9 | 0.00 | 0.00 | 0.00 | 26 | 1003.1 |
| 20260509003017 | 21 | 315 | 33.8 | 49.9 | 0.00 | 0.00 | 0.00 | 26 | 1002.9 |
| 20260509000037 | 22 | 315 | 37.0 | 54.7 | 0.00 | 0.00 | 0.00 | 27 | 1002.9 |
| 20260508233016 | 22 | 315 | 37.0 | 53.1 | 0.00 | 0.00 | 0.00 | 26 | 1003.0 |
| 20260508230016 | 23 | 315 | 30.6 | 51.5 | 0.00 | 0.00 | 0.00 | 25 | 1002.9 |
| 20260508223016 | 23 | 315 | 33.8 | 45.1 | 0.00 | 0.00 | 0.00 | 26 | 1002.9 |
| 20260508220016 | 23 | 315 | 27.4 | 48.3 | 0.00 | 0.00 | 0.00 | 24 | 1002.8 |
| 20260508213017 | 23 | 293 | 17.7 | 45.1 | 0.00 | 0.00 | 0.00 | 25 | 1003.0 |
| 20260508210016 | 23 | 293 | 12.9 | 32.2 | 0.00 | 0.00 | 0.00 | 26 | 1003.5 |
| 20260508203015 | 22 | 315 | 19.3 | 38.6 | 0.00 | 0.00 | 0.00 | 24 | 1003.9 |
| 20260508200056 | 21 | 315 | 27.4 | 45.1 | 0.00 | 0.00 | 0.00 | 26 | 1004.4 |
| 20260508193018 | 21 | 315 | 27.4 | 43.5 | 0.00 | 0.00 | 0.00 | 25 | 1004.8 |
| 20260508190018 | 22 | 293 | 22.5 | 41.8 | 0.00 | 0.00 | 0.00 | 23 | 1005.0 |
| 20260508183018 | 22 | 293 | 16.1 | 38.6 | 0.00 | 0.00 | 0.00 | 22 | 1005.4 |
| 20260508180017 | 21 | 293 | 11.3 | 35.4 | 0.00 | 0.00 | 0.00 | 23 | 1005.9 |
| 20260508173018 | 21 | 248 | 11.3 | 25.7 | 0.00 | 0.00 | 0.00 | 24 | 1006.5 |
| 20260508170018 | 20 | 315 | 16.1 | 37.0 | 0.00 | 0.00 | 0.00 | 27 | 1007.0 |
| 20260508163018 | 20 | 293 | 14.5 | 37.0 | 0.00 | 0.00 | 0.00 | 26 | 1007.5 |
| 20260508160018 | 19 | 293 | 12.9 | 29.0 | 0.00 | 0.00 | 0.00 | 26 | 1007.8 |
| 20260508153018 | 18 | 248 | 9.7 | 25.7 | 0.00 | 0.00 | 0.00 | 28 | 1007.9 |
| 20260508150017 | 17 | 248 | 11.3 | 25.7 | 0.00 | 0.00 | 0.00 | 33 | 1008.2 |
| 20260508143037 | 16 | 225 | 8.0 | 19.3 | 0.00 | 0.00 | 0.00 | 40 | 1008.3 |
| 20260508140037 | 13 | 225 | 8.0 | 17.7 | 0.00 | 0.00 | 0.00 | 44 | 1008.5 |
| 20260508133016 | 12 | 225 | 8.0 | 19.3 | 0.00 | 0.00 | 0.00 | 45 | 1008.6 |
| 20260508130017 | 10 | 203 | 11.3 | 20.9 | 0.00 | 0.00 | 0.00 | 52 | 1008.4 |
| 20260508123016 | 7 | 203 | 8.0 | 14.5 | 0.00 | 0.00 | 0.00 | 56 | 1008.6 |
| 20260508120017 | 6 | 203 | 6.4 | 14.5 | 0.00 | 0.00 | 0.00 | 60 | 1008.3 |
| 20260508113017 | 6 | 203 | 9.7 | 14.5 | 0.00 | 0.00 | 0.00 | 55 | 1008.2 |
| 20260508110016 | 6 | 203 | 11.3 | 14.5 | 0.00 | 0.00 | 0.00 | 53 | 1008.3 |